CAPE
479 410 118 105 114 71 47 0 0 0 99 487 463 395 281 204 45 0 0 0 0 2 10 16 59 96 57 0 0 0 143 445 571 429 533 535 457 322 378 875 1406 1248 940 696
296 110 81 122 51 12 8 0 0 0 63 439 508 262 465 433 238 59 0 0 0 0 0 0 11 17 84 95 80 27 170 437 618 742 644 557 353 195 184 990 1545 1488 1310 1266
247 97 71 28 2 0 0 0 0 0 361 436 459 366 473 582 575 255 20 0 0 0 0 0 0 7 26 152 194 148 156 332 517 718 681 511 366 130 135 620 1472 1458 1549 1482
134 60 0 0 0 0 0 0 0 24 212 233 403 152 417 567 570 584 448 27 0 0 0 0 0 0 11 53 57 72 137 254 374 515 691 627 206 235 358 762 1028 1262 1468 1450
0 0 0 0 0 0 0 0 0 209 177 348 391 355 276 434 482 573 662 492 35 0 0 0 0 0 5 6 0 19 62 71 174 238 566 526 351 256 446 882 925 1246 1379 1535
0 4 0 0 0 0 8 54 61 131 297 129 214 375 315 262 182 455 709 674 489 148 2 0 0 0 0 0 2 0 2 23 38 123 241 311 324 326 269 314 752 1122 1273 1446
0 0 0 0 0 0 0 43 11 62 157 56 3 252 129 217 375 488 606 624 588 479 274 97 8 0 0 0 0 0 1 35 175 182 188 203 360 399 192 211 265 573 1092 1355
0 0 0 0 0 0 0 0 0 0 0 1 36 59 254 117 73 449 674 660 602 582 544 435 288 29 0 0 0 0 0 15 114 243 290 387 424 469 376 368 363 404 703 928
0 0 0 0 0 0 0 0 0 0 0 35 106 117 74 44 126 285 420 622 688 645 619 622 537 215 105 37 21 51 36 18 17 53 239 352 421 372 323 374 369 329 363 414
0 0 0 0 0 0 0 0 0 0 0 0 16 24 33 125 194 276 370 290 483 755 740 656 620 486 250 136 88 70 74 86 67 47 92 166 184 189 176 165 104 60 0 192
0 0 0 0 0 1 0 0 0 0 0 0 0 7 34 55 146 150 311 532 587 667 836 776 623 392 319 218 129 117 125 121 126 80 74 45 54 33 42 77 97 21 113 517
0 0 0 0 0 0 0 0 0 0 0 1 0 0 0 13 10 88 164 492 624 798 898 976 852 534 287 234 207 191 189 212 207 194 139 73 48 106 145 239 47 566 678 761
0 0 0 0 0 0 0 0 0 0 1 10 6 0 0 39 55 118 197 340 459 686 703 808 796 910 856 691 530 431 374 340 320 343 328 306 395 419 286 120 249 414 680 1183
0 0 0 0 28 0 0 0 0 0 0 0 0 0 0 8 27 29 53 131 179 295 505 722 755 731 738 766 697 667 610 498 496 515 581 629 640 588 574 658 736 974 1660 2005
0 0 0 0 0 0 0 0 0 0 0 0 0 0 0 0 52 38 18 35 52 120 243 522 637 600 796 784 495 533 688 680 600 585 684 743 733 685 866 1281 1820 2108 2088 2132
0 0 0 0 0 0 0 0 0 0 0 0 0 0 0 1 143 76 47 220 278 319 255 379 1039 1296 1023 701 646 633 576 601 608 605 741 1202 1581 1824 1894 1998 2069 2007 1886 1838
0 0 0 0 0 0 0 0 0 0 0 0 0 0 0 0 36 136 191 579 707 710 1097 1469 1615 1455 1186 1064 1041 1012 1096 1182 1297 1490 1703 1639 1563 1495 1252 1046 1127 1122 805 579
5 0 0 1 0 0 0 0 0 0 0 0 0 0 0 9 142 250 296 647 1171 1234 1536 1833 1878 1691 1579 1686 1653 1543 1598 1628 1574 1433 1178 873 913 713 315 200 129 20 0 11
0 1 4 0 0 0 0 0 0 0 0 0 0 0 0 1 21 41 171 651 1342 1614 1927 2165 2151 1850 1634 1544 1403 1420 1351 1112 890 581 203 53 35 2 0 0 0 0 0 0
0 0 0 0 2 0 0 0 0 0 0 0 0 0 0 85 102 147 85 576 1646 1895 2031 2156 1771 1587 1474 1266 1167 1061 718 432 61 0 0 0 0 0 0 0 0 0 0 0
0 0 0 1 2 0 0 0 0 0 5 0 0 0 0 105 220 4 123 503 1703 2035 2071 1940 1669 1693 1509 1048 948 804 179 0 0 0 0 0 0 0 0 0 0 0 0 0
0 0 0 0 0 0 0 0 0 0 0 0 0 0 0 0 21 204 213 448 1379 2203 2119 1913 1857 1626 1170 592 443 2 0 0 0 0 0 0 0 0 0 0 0 0 0 0
0 0 0 0 0 0 0 0 0 0 0 0 0 0 0 89 3 207 342 685 1403 2037 2094 1999 1879 1387 748 136 0 0 0 0 0 0 0 0 0 0 0 0 0 0 0 0
0 0 0 0 0 0 0 0 0 0 0 0 0 0 0 152 41 237 462 1050 1535 1718 2131 2108 1708 1270 668 0 0 0 0 0 0 0 0 0 0 0 0 0 0 0 0 0
0 0 0 0 0 0 0 0 0 0 0 0 0 0 0 24 342 419 663 1160 1547 1776 2137 2041 1648 1146 251 0 0 0 0 0 0 0 0 0 0 0 0 0 0 0 0 0
0 0 0 0 0 0 0 0 0 0 0 0 0 0 0 0 37 590 912 1048 1420 1629 2073 1731 1211 445 8 0 0 0 0 0 0 0 0 0 0 0 0 0 0 0 0 0
CIN
-141 -89 -55 -68 -155 -201 -229 -0 -0 -0 -151 -81 -65 -85 -137 -183 -257 -0 -0 -0 -0 -40 -57 -67 -66 -59 -69 -0 -0 -0 -68 -54 -48 -66 -39 -41 -34 -39 -41 -38 -33 -50 -55 -55
-116 -68 -108 -188 -217 -206 -268 -0 -0 -0 -206 -117 -101 -118 -143 -167 -199 -286 -0 -0 -0 -0 -0 -0 -76 -86 -61 -69 -94 -116 -92 -64 -67 -50 -42 -49 -57 -71 -58 -32 -29 -41 -48 -50
-96 -88 -172 -229 -101 -0 -0 -0 -0 -0 -202 -173 -125 -128 -172 -177 -164 -229 -351 -0 -0 -0 -0 -0 -0 -120 -82 -53 -66 -71 -95 -85 -76 -68 -67 -83 -95 -136 -112 -39 -23 -35 -52 -51
-167 -184 -0 -0 -0 -0 -0 -0 -0 -95 -106 -42 -144 -30 -150 -178 -180 -197 -208 -357 -0 -0 -0 -0 -0 -21 -130 -137 -122 -122 -133 -106 -113 -101 -83 -79 -94 -75 -59 -29 -27 -31 -52 -50
-0 -0 -0 -0 -0 -0 -0 -0 -0 -173 -135 -101 -106 -64 -105 -223 -177 -196 -186 -210 -367 -0 -0 -0 -0 -0 -139 -177 -0 -140 -119 -133 -154 -179 -122 -106 -112 -86 -67 -38 -42 -37 -47 -57
-0 -168 -0 -0 -0 -0 -227 -192 -198 -189 -120 -57 -131 -77 -68 -140 -133 -141 -170 -184 -219 -304 -123 -0 -0 -0 -0 -0 -179 -0 -45 -168 -185 -189 -181 -141 -100 -97 -104 -94 -53 -35 -35 -49
-0 -0 -0 -0 -0 -0 -0 -85 -34 -18 -41 -42 -250 -122 -83 -173 -169 -132 -134 -159 -182 -212 -251 -292 -195 -0 -0 -0 -0 -0 -48 -191 -116 -155 -176 -176 -133 -120 -143 -127 -105 -67 -45 -40
-0 -0 -0 -0 -0 -0 -0 -0 -0 -0 -0 -6 -312 -91 -62 -280 -383 -262 -166 -140 -161 -187 -197 -216 -230 -310 -0 -0 -0 -0 -0 -307 -185 -150 -151 -167 -144 -122 -136 -134 -112 -89 -66 -44
-0 -0 -0 -0 -0 -0 -0 -0 -0 -0 -0 -46 -61 -97 -274 -405 -353 -340 -262 -169 -165 -170 -179 -172 -167 -234 -276 -318 -346 -300 -303 -346 -351 -283 -200 -184 -159 -160 -146 -148 -153 -137 -135 -106
-0 -0 -0 -0 -0 -0 -0 -0 -4 -0 -0 -0 -54 -91 -70 -165 -224 -295 -249 -223 -156 -149 -195 -201 -180 -194 -229 -260 -295 -331 -326 -299 -314 -325 -305 -276 -257 -249 -237 -226 -235 -234 -0 -189
-0 -0 -0 -0 -0 -42 -0 -0 -0 -4 -0 -0 -0 -34 -146 -151 -229 -210 -265 -251 -195 -189 -178 -209 -228 -264 -259 -278 -308 -330 -341 -331 -332 -362 -364 -377 -375 -378 -349 -315 -277 -344 -246 -160
-0 -0 -0 -0 -0 -0 -0 -0 -0 -0 -0 -2 -0 -0 -0 -318 -331 -316 -327 -288 -270 -229 -248 -250 -239 -284 -293 -312 -314 -308 -315 -319 -322 -347 -392 -395 -420 -409 -361 -290 -364 -210 -174 -174
-0 -0 -0 -0 -0 -0 -14 -0 -0 -0 -22 -68 -25 -0 -0 -398 -339 -370 -320 -313 -273 -266 -281 -258 -291 -297 -265 -277 -291 -317 -334 -336 -318 -347 -322 -330 -294 -306 -329 -365 -320 -257 -230 -181
-0 -0 -0 -9 -16 -0 -0 -0 -0 -0 -0 -0 -0 -0 -0 -166 -306 -384 -407 -405 -330 -295 -274 -254 -271 -291 -302 -337 -327 -340 -326 -349 -345 -314 -260 -236 -245 -254 -266 -249 -239 -219 -149 -109
-0 -0 -0 -0 -0 -0 -0 -0 -0 -0 -0 -0 -0 -0 -0 -0 -244 -342 -445 -451 -409 -313 -331 -310 -289 -297 -331 -368 -400 -418 -364 -357 -339 -323 -282 -251 -279 -284 -252 -217 -149 -105 -108 -97
-0 -0 -0 -0 -0 -0 -0 -0 -0 -0 -0 -0 -0 -0 -0 -71 -346 -374 -400 -366 -345 -291 -308 -344 -302 -306 -302 -325 -342 -384 -385 -374 -362 -321 -305 -284 -213 -189 -162 -151 -140 -115 -110 -93
-0 -0 -0 -0 -0 -0 -0 -0 -0 -0 -0 -0 -0 -0 -0 -0 -250 -326 -358 -287 -266 -276 -240 -229 -252 -280 -302 -315 -357 -339 -370 -376 -332 -286 -259 -238 -220 -214 -243 -248 -232 -200 -247 -303
-133 -0 -0 -11 -0 -0 -0 -0 -0 -0 -0 -0 -0 -0 -0 -146 -259 -331 -357 -292 -252 -257 -239 -245 -258 -288 -311 -308 -323 -356 -342 -313 -283 -288 -310 -336 -311 -331 -418 -474 -534 -260 -0 -269
-0 -25 -71 -0 -0 -0 -0 -0 -0 -0 -0 -0 -0 -0 -0 -87 -314 -322 -426 -327 -237 -250 -242 -220 -232 -287 -309 -318 -351 -349 -357 -363 -372 -392 -457 -584 -84 -100 -0 -0 -0 -0 -0 -0
-0 -0 -0 -0 -39 -0 -0 -0 -0 -0 -0 -0 -0 -0 -0 -314 -54 -73 -383 -374 -257 -224 -249 -268 -321 -345 -351 -390 -397 -375 -426 -456 -562 -0 -0 -0 -0 -0 -0 -0 -0 -0 -0 -0
-0 -0 -0 -58 -29 -0 -0 -0 -0 -0 -17 -0 -0 -0 -0 -221 -249 -131 -389 -388 -265 -233 -260 -306 -284 -294 -332 -448 -422 -400 -509 -0 -0 -0 -0 -0 -0 -0 -0 -0 -0 -0 -0 -0
-0 -0 -0 -0 -0 -0 -0 -0 -0 -0 -0 -0 -0 -0 -0 -0 -177 -426 -389 -391 -309 -271 -333 -323 -292 -325 -417 -548 -522 -260 -0 -0 -0 -0 -0 -0 -0 -0 -0 -0 -0 -0 -0 -0
-0 -0 -0 -0 -0 -0 -0 -0 -0 -0 -0 -0 -0 -0 -0 -592 -234 -492 -366 -398 -350 -338 -335 -309 -282 -375 -503 -684 -0 -0 -0 -0 -0 -0 -0 -0 -0 -0 -0 -0 -0 -0 -0 -0
-0 -0 -0 -0 -0 -0 -0 -0 -0 -0 -0 -0 -0 -0 -0 -631 -629 -495 -430 -429 -418 -426 -339 -320 -334 -361 -465 -0 -0 -0 -0 -0 -0 -0 -0 -0 -0 -0 -0 -0 -0 -0 -0 -0
-0 -0 -0 -0 -0 -0 -0 -0 -0 -0 -0 -0 -0 -0 -0 -803 -629 -555 -497 -462 -435 -444 -374 -358 -348 -386 -608 -0 -0 -0 -0 -0 -0 -0 -0 -0 -0 -0 -0 -0 -0 -0 -0 -0
-0 -0 -0 -0 -0 -0 -0 -0 -0 -0 -0 -0 -0 -0 -0 -0 -771 -603 -538 -505 -458 -428 -384 -401 -429 -542 -682 -0 -0 -0 -0 -0 -0 -0 -0 -0 -0 -0 -0 -0 -0 -0 -0 -0
Wind_Speed
16 15 16 14 14 15 16 16 16 15 12 11 13 16 19 21 20 20 22 23 25 27 26 24 24 22 25 29 30 27 4 12 12 7 14 20 21 20 19 17 17 14 13 13
16 16 15 14 13 13 16 15 14 11 11 12 13 13 15 19 20 20 21 22 25 27 28 28 26 25 24 25 28 14 12 6 0 16 17 18 19 20 20 19 17 11 11 11
21 18 15 14 12 11 14 14 15 14 12 13 12 14 11 17 20 20 20 21 22 25 27 28 29 29 27 26 24 20 17 16 8 4 14 14 17 19 19 20 14 11 11 10
22 18 17 13 12 12 12 14 15 13 13 15 13 18 11 13 19 21 19 20 22 24 26 27 27 27 28 28 26 25 21 21 18 11 2 3 7 12 18 17 14 11 11 11
23 21 20 19 16 13 17 15 14 13 13 16 14 17 16 11 13 21 21 22 22 22 24 26 27 27 26 25 26 31 28 27 26 23 17 8 26 23 19 15 15 11 12 11
28 26 24 21 18 19 13 14 15 15 15 17 16 15 16 11 16 18 18 20 22 23 23 22 24 26 26 26 27 30 31 29 30 31 31 29 25 20 16 11 9 9 8 10
24 28 9 6 11 12 10 10 16 17 15 17 18 15 14 12 12 16 18 20 20 19 15 17 18 22 24 26 27 28 29 30 29 31 30 27 24 20 16 12 10 8 8 8
20 16 14 12 13 12 6 13 15 15 15 16 16 18 17 10 16 15 16 16 17 18 17 15 18 20 23 25 26 27 28 29 30 30 29 28 26 23 20 17 5 6 11 15
17 19 16 15 16 11 10 12 15 13 16 16 15 18 7 11 12 8 8 9 12 15 16 19 20 22 23 22 27 27 27 27 26 27 26 26 26 25 24 29 27 11 15 19
15 17 16 14 12 13 14 9 14 14 16 15 21 15 10 18 11 7 4 5 10 17 15 16 22 21 20 20 23 25 26 26 25 24 25 24 21 18 16 25 13 9 3 11
15 16 16 21 18 13 10 11 16 16 21 18 21 10 8 2 9 8 7 5 9 15 16 10 12 15 14 19 21 23 24 24 23 23 23 21 23 23 20 23 20 9 6 3
24 18 19 22 21 16 13 11 9 11 10 8 8 15 13 9 14 11 8 5 6 11 11 3 7 7 5 19 20 21 21 21 21 20 19 21 23 17 17 14 10 3 3 11
6 15 25 22 18 8 7 9 13 15 15 9 13 21 19 15 15 13 9 7 9 9 7 5 3 8 4 16 14 17 17 19 19 17 17 17 16 11 9 9 6 2 1 9
6 19 18 19 18 11 11 11 13 18 16 13 11 11 14 10 11 11 10 10 11 11 7 3 12 11 2 6 8 8 7 17 17 16 14 12 10 5 3 4 3 4 9 13
11 19 14 15 14 13 14 17 14 13 20 19 21 16 13 9 10 11 12 12 11 18 18 6 10 1 3 6 6 2 10 12 10 10 10 8 5 5 7 8 10 12 14 14
14 19 11 21 19 20 21 18 18 18 18 18 20 20 12 14 12 12 12 13 14 21 26 20 2 3 4 5 6 10 11 12 10 9 9 9 9 10 10 12 13 14 14 15
18 20 17 19 20 18 24 11 11 15 12 16 11 15 11 12 8 10 11 12 12 16 16 12 9 9 9 9 12 14 13 12 11 11 10 10 11 12 13 14 15 15 16 17
21 21 23 25 19 30 24 22 21 17 18 2 18 19 10 14 10 8 11 10 11 12 11 9 10 12 14 15 14 13 12 11 10 10 10 10 11 13 14 15 16 16 16 17
21 21 23 24 25 26 21 19 19 19 16 16 16 23 17 14 11 7 9 10 11 13 11 9 11 13 14 13 11 9 8 8 9 10 11 12 13 13 14 15 16 17 16 16
21 24 24 22 25 22 19 17 20 13 15 19 20 22 19 9 10 9 14 11 9 10 10 10 10 10 10 9 8 7 7 8 10 11 12 13 13 13 14 15 15 16 16 16
27 26 25 26 27 24 20 24 18 14 14 21 21 22 23 16 17 21 12 12 14 13 13 12 10 9 7 6 6 5 6 8 10 11 12 13 13 13 13 13 14 15 16 16
32 32 31 29 31 32 25 16 19 18 18 20 22 23 26 29 28 16 5 11 14 15 15 12 10 10 6 4 5 4 6 8 10 11 11 12 13 12 12 13 14 15 16 16
33 31 32 31 31 22 20 18 21 21 21 23 24 25 27 29 26 9 6 12 14 15 16 14 11 10 8 7 10 4 7 10 10 11 11 12 11 12 12 13 14 15 15 16
25 26 29 29 25 27 20 20 23 24 26 27 28 29 30 29 25 13 3 10 15 16 15 14 12 11 9 4 7 8 9 10 10 11 11 11 11 11 12 13 14 14 15 16
31 30 29 30 27 27 23 29 29 29 28 29 29 29 29 28 27 22 10 8 13 15 15 13 11 11 8 6 6 7 8 9 10 10 11 11 11 11 12 13 14 14 16 16
33 36 36 34 26 27 30 31 31 31 32 32 33 33 30 29 29 27 21 11 10 14 13 11 10 9 8 8 7 6 6 8 10 10 10 11 10 10 11 12 13 15 15 17
Wind_Direction
232 243 227 242 259 255 259 256 253 266 329 7 13 60 99 133 130 115 132 142 153 158 158 155 155 152 153 160 164 156 232 259 270 308 281 240 207 207 203 183 172 116 92 78
240 234 239 222 220 231 218 237 261 350 4 29 28 38 84 128 143 141 136 142 154 161 162 161 158 159 160 160 164 150 148 268 55 265 267 260 252 231 214 231 200 81 82 68
227 215 227 191 195 202 180 155 74 14 23 329 21 344 70 149 183 160 153 154 151 158 161 162 164 166 165 166 165 160 158 156 141 277 278 286 275 258 261 255 326 62 77 62
209 213 205 215 241 226 261 305 28 59 56 1 355 344 27 126 160 172 151 149 153 158 164 167 166 167 169 173 168 168 166 170 164 152 113 43 16 329 288 301 342 26 45 49
222 232 234 241 239 236 282 330 0 44 31 358 1 339 344 107 144 173 164 162 156 153 159 165 172 174 172 170 175 186 183 182 181 176 169 142 212 255 290 327 335 23 23 46
228 242 240 225 307 295 27 10 3 3 3 344 342 344 347 8 167 157 152 156 158 158 156 157 167 173 176 177 179 186 191 191 192 196 200 201 198 186 176 137 119 97 72 55
256 231 330 38 354 2 5 25 352 350 355 354 344 357 286 107 89 141 147 150 150 148 140 146 149 160 171 176 178 183 185 188 188 192 195 194 193 187 180 166 149 104 86 72
266 282 304 339 327 338 65 343 337 340 348 359 346 4 327 279 155 117 132 139 141 149 147 143 150 155 163 169 174 179 182 186 189 191 194 197 199 199 199 201 135 44 8 351
272 271 298 323 305 315 334 329 303 341 349 350 281 278 202 164 41 55 83 122 144 149 152 154 153 159 160 161 175 177 181 185 185 188 191 196 201 206 215 248 281 348 337 330
270 273 290 299 306 310 302 15 320 326 343 337 280 225 192 353 24 46 72 136 152 153 147 146 155 154 153 157 166 174 181 184 184 187 191 195 196 196 199 225 200 189 153 353
260 282 274 264 270 304 360 353 329 325 275 335 325 36 59 22 62 32 1 97 146 150 149 142 137 141 143 156 163 170 176 181 183 186 191 194 200 204 199 213 208 187 164 50
245 274 281 270 287 311 342 359 33 13 16 34 102 232 41 98 13 14 19 43 125 141 138 151 121 116 130 158 162 166 168 171 175 178 180 188 197 188 191 188 179 139 32 353
280 283 267 279 302 343 3 355 355 340 337 62 7 304 343 28 30 45 70 79 125 135 142 123 106 285 96 145 149 158 158 166 172 166 170 175 174 166 164 173 171 150 38 357
295 273 276 283 296 316 323 334 344 312 326 343 191 192 24 67 55 62 77 88 113 141 158 194 264 267 25 96 125 138 134 160 161 157 155 155 151 133 88 21 30 48 6 347
288 287 284 289 303 318 320 313 325 326 310 309 309 292 18 73 78 72 79 78 96 150 152 137 131 335 23 352 347 29 138 137 122 118 123 116 70 46 24 8 1 350 343 344
290 293 299 273 287 296 300 310 316 309 311 306 310 313 16 25 69 78 89 86 82 127 143 142 106 35 25 20 27 72 89 94 88 83 75 34 37 38 25 6 3 357 355 350
296 288 287 286 288 300 298 317 319 312 317 307 318 322 353 7 66 95 91 94 84 114 124 121 106 97 90 88 90 91 88 80 74 68 52 43 35 22 5 357 356 354 351 348
292 291 283 282 285 278 298 299 303 307 307 340 300 304 349 342 24 94 103 97 94 111 118 114 106 104 105 106 98 88 80 65 52 46 38 28 13 360 356 355 354 353 354 354
282 288 288 282 279 286 290 298 307 300 298 308 295 277 308 335 26 71 116 113 113 121 119 114 106 104 106 104 94 77 57 40 25 13 9 1 358 359 358 351 350 351 356 359
284 280 280 285 283 279 287 298 303 309 286 302 292 278 286 10 356 356 137 125 117 128 128 127 119 111 100 88 83 66 47 29 11 4 359 358 1 3 358 356 5 10 15 18
277 279 273 273 277 282 292 286 293 279 288 296 292 284 275 276 304 298 130 130 127 135 135 130 124 119 106 86 75 45 28 16 15 11 8 6 6 8 9 11 6 8 11 16
273 270 268 271 270 268 288 291 281 288 296 295 297 293 280 261 261 318 114 143 137 138 139 140 135 126 114 90 82 42 37 34 35 29 23 12 5 15 21 19 14 16 23 25
273 274 272 270 272 280 291 285 285 287 288 294 295 295 289 281 285 306 139 155 154 149 145 144 145 139 124 112 104 46 66 67 51 37 28 19 23 21 25 27 26 25 24 21
285 288 274 273 270 276 274 283 288 285 284 290 290 290 291 292 289 290 239 166 167 159 157 151 147 148 146 143 100 89 80 61 47 40 40 41 51 46 37 34 28 27 23 20
283 286 280 275 274 277 265 280 284 284 286 286 287 291 290 293 291 280 273 200 177 170 162 161 160 153 152 146 118 99 73 57 42 40 46 55 64 58 43 30 24 26 19 18
278 274 272 271 277 274 274 280 283 282 282 284 284 284 287 291 291 281 273 252 202 188 175 170 166 167 160 147 131 98 69 54 48 49 60 65 56 53 50 48 32 18 34 35